Time,TemperatureF,DewpointF,PressureIn,WindDirection,WindDirectionDegrees,WindSpeedMPH,WindSpeedGustMPH,Humidity,HourlyPrecipIn,Conditions,Clouds,dailyrainin,SolarRadiationWatts/m^2,SoftwareType,DateUTC
2013-06-24 00:12:00,62.0,42.0,-100.00,SW,230,3.0,5.0,48,0.00,,,-99.99,0.000000,,2013-06-24 06:12:00,
2013-06-24 01:44:00,64.0,38.0,-100.00,SW,214,6.0,9.0,38,0.00,,,-99.99,0.000000,,2013-06-24 07:44:00,
2013-06-24 02:22:00,66.0,34.0,-100.00,South,191,6.0,9.0,30,0.00,,,-99.99,0.000000,,2013-06-24 08:22:00,
2013-06-24 02:33:00,66.0,36.0,-100.00,SSW,193,5.0,8.0,34,0.00,,,-99.99,0.000000,,2013-06-24 08:33:00,
2013-06-24 02:44:00,65.0,36.0,-100.00,SSW,195,6.0,9.0,34,0.00,,,-99.99,0.000000,,2013-06-24 08:44:00,
2013-06-24 02:50:00,67.0,37.0,-100.00,SSW,200,6.0,11.0,33,0.00,,,-99.99,0.000000,,2013-06-24 08:50:00,
2013-06-24 03:12:00,67.0,37.0,-100.00,SSW,200,6.0,11.0,33,0.00,,,-99.99,0.000000,,2013-06-24 09:12:00,
2013-06-24 03:34:00,67.0,37.0,-100.00,SSW,200,6.0,11.0,33,0.00,,,-99.99,0.000000,,2013-06-24 09:34:00,
2013-06-24 03:44:00,67.0,37.0,-100.00,SSW,200,6.0,11.0,33,0.00,,,-99.99,0.000000,,2013-06-24 09:44:00,
2013-06-24 04:38:00,68.0,33.0,-100.00,SSW,194,6.0,9.0,27,0.00,,,-99.99,0.000000,,2013-06-24 10:38:00,
2013-06-24 04:51:00,65.0,33.0,-100.00,South,178,6.0,9.0,30,0.00,,,-99.99,0.000000,,2013-06-24 10:51:00,
2013-06-24 05:12:00,62.0,34.0,-100.00,SW,221,6.0,10.0,34,0.00,,,-99.99,0.000000,,2013-06-24 11:12:00,
2013-06-24 05:43:00,61.0,36.0,-100.00,SSW,213,5.0,7.0,38,0.00,,,-99.99,0.000000,,2013-06-24 11:43:00,
2013-06-24 06:12:00,61.0,34.0,-100.00,SW,219,5.0,9.0,36,0.00,,,-99.99,0.000000,,2013-06-24 12:12:00,
2013-06-24 06:22:00,61.0,35.0,-100.00,SW,219,5.0,7.0,38,0.00,,,-99.99,1.000000,,2013-06-24 12:22:00,
2013-06-24 06:53:00,60.0,37.0,-100.00,SW,229,5.0,7.0,42,0.00,,,-99.99,26.000000,,2013-06-24 12:53:00,
2013-06-24 08:02:00,62.0,38.0,-100.00,SW,215,7.0,14.0,40,0.00,,,-99.99,103.000000,,2013-06-24 14:02:00,
2013-06-24 10:34:00,76.0,40.0,-100.00,South,178,9.0,14.0,27,0.00,,,-99.99,733.000000,,2013-06-24 16:34:00,
2013-06-24 11:12:00,77.0,39.0,-100.00,South,187,8.0,15.0,25,0.00,,,-99.99,744.000000,,2013-06-24 17:12:00,
2013-06-24 11:22:00,78.0,39.0,-100.00,South,185,8.0,13.0,24,0.00,,,-99.99,959.000000,,2013-06-24 17:22:00,
2013-06-24 16:34:00,74.0,41.0,-100.00,SW,223,9.0,15.0,30,0.00,,,-99.99,215.000000,,2013-06-24 22:34:00,
2013-06-24 16:44:00,74.0,39.0,-100.00,SW,226,9.0,17.0,28,0.00,,,-99.99,237.000000,,2013-06-24 22:44:00,
2013-06-24 16:53:00,74.0,39.0,-100.00,SW,226,9.0,17.0,28,0.00,,,-99.99,237.000000,,2013-06-24 22:53:00,
2013-06-24 17:02:00,74.0,40.0,-100.00,SW,214,11.0,18.0,29,0.00,,,-99.99,210.000000,,2013-06-24 23:02:00,
2013-06-24 17:33:00,73.0,37.0,-100.00,SSW,204,6.0,11.0,27,0.00,,,-99.99,211.000000,,2013-06-24 23:33:00,
2013-06-24 17:43:00,72.0,38.0,-100.00,SW,215,9.0,15.0,29,0.00,,,-99.99,120.000000,,2013-06-24 23:43:00,
2013-06-24 17:53:00,73.0,34.0,-100.00,SSW,208,9.0,17.0,24,0.00,,,-99.99,135.000000,,2013-06-24 23:53:00,
2013-06-24 18:02:00,73.0,34.0,-100.00,SSW,208,9.0,17.0,24,0.00,,,-99.99,135.000000,,2013-06-25 00:02:00,
2013-06-24 18:22:00,72.0,40.0,-100.00,SW,231,12.0,19.0,31,0.00,,,-99.99,95.000000,,2013-06-25 00:22:00,
2013-06-24 18:33:00,72.0,40.0,-100.00,SW,231,12.0,19.0,31,0.00,,,-99.99,95.000000,,2013-06-25 00:33:00,
2013-06-24 19:46:00,70.0,39.0,-100.00,SSW,201,7.0,11.0,32,0.00,,,-99.99,2.000000,,2013-06-25 01:46:00,
2013-06-24 20:11:00,70.0,38.0,-100.00,SSW,208,8.0,15.0,30,0.00,,,-99.99,29.000000,,2013-06-25 02:11:00,
2013-06-24 20:43:00,68.0,43.0,-100.00,South,173,8.0,18.0,40,0.00,,,-99.99,7.000000,,2013-06-25 02:43:00,
2013-06-24 21:12:00,67.0,45.0,-100.00,South,181,3.0,9.0,45,0.00,,,-99.99,3.000000,,2013-06-25 03:12:00,
2013-06-24 22:11:00,69.0,39.0,-100.00,SSW,193,7.0,11.0,33,0.00,,,-99.99,0.000000,,2013-06-25 04:11:00,
2013-06-24 22:42:00,69.0,39.0,-100.00,SSW,209,6.0,10.0,34,0.00,,,-99.99,0.000000,,2013-06-25 04:42:00,
2013-06-24 22:50:00,70.0,40.0,-100.00,SSW,208,9.0,14.0,34,0.00,,,-99.99,0.000000,,2013-06-25 04:50:00,
2013-06-24 22:52:00,69.0,39.0,-100.00,SSW,209,6.0,10.0,34,0.00,,,-99.99,0.000000,,2013-06-25 04:52:00,
2013-06-24 23:11:00,69.0,41.0,-100.00,SSW,192,7.0,11.0,35,0.00,,,-99.99,0.000000,,2013-06-25 05:11:00,
2013-06-24 23:21:00,70.0,40.0,-100.00,SSW,208,9.0,14.0,34,0.00,,,-99.99,0.000000,,2013-06-25 05:21:00,
2013-06-24 23:32:00,70.0,40.0,-100.00,SSW,208,9.0,14.0,34,0.00,,,-99.99,0.000000,,2013-06-25 05:32:00,
2013-06-24 23:44:00,70.0,40.0,-100.00,SSW,208,9.0,14.0,34,0.00,,,-99.99,0.000000,,2013-06-25 05:44:00,